Tracking 29892 objects as of 21-Nov-2024
HD Live streaming from Space Station
objects crossing your sky now

COSMOS 886 DEB

Track COSMOS 886 DEB now!
10-day predictions


NORAD ID: 9824
Int'l Code: 1976-126AL
Perigee: 491.5 km
Apogee: 1,821.7 km
Inclination: 65.8 °
Period: 108.3 minutes
Semi major axis: 7527 km
RCS: 0.0878 m2 (small)
Launch date: December 27, 1976
Source: Commonwealth of Independent States (former USSR) (CIS)
Launch site: TYURATAM MISSILE AND SPACE COMPLEX (TTMTR)

Note: This is SATELLITE DEBRIS
Your satellite tracking list
Your tracking list is empty




NASA's NSSDC Master Catalog

Two Line Element Set (TLE):
1 09824U 76126AL  24325.41479390  .00006438  00000-0  14210-2 0  9999
2 09824  65.8122 328.3722 0883521 291.5951  59.3249 13.29288541278298
Source of the keplerian elements: AFSPC